This is the latest recevied weather packets stored in our database for station/object N3WGC-14. If no packets are shown the sender has not sent any weather packets the latest 10 day(s).
| Time | Temp. | Humidity | Pressure | Rain* | Wind** | Luminosity | Snow |
|---|---|---|---|---|---|---|---|
| 1778192945 | 16.11° C | 68% | 1008.8 hPa | 0 mm | - | - | - |
| 1778192645 | 16.11° C | 68% | 1008.8 hPa | 0 mm | - | - | - |
| 1778192344 | 16.11° C | 69% | 1008.9 hPa | 0 mm | - | - | - |
| 1778192044 | 16.11° C | 67% | 1008.9 hPa | 0 mm | - | - | - |
| 1778191744 | 16.11° C | 68% | 1008.8 hPa | 0 mm | - | - | - |
| 1778191444 | 16.11° C | 69% | 1009 hPa | 0 mm | - | - | - |
| 1778191144 | 16.11° C | 68% | 1009.1 hPa | 0 mm | - | - | - |
| 1778190844 | 16.11° C | 65% | 1009.1 hPa | 0 mm | - | - | - |
| 1778190544 | 16.11° C | 65% | 1009 hPa | 0 mm | - | - | - |
| 1778190243 | 16.11° C | 68% | 1009 hPa | 0 mm | - | - | - |
| 1778189943 | 16.11° C | 67% | 1009.2 hPa | 0 mm | - | - | - |
| 1778189643 | 16.11° C | 68% | 1009.1 hPa | 0 mm | - | - | - |
| 1778189343 | 16.11° C | 68% | 1009.2 hPa | 0 mm | - | - | - |
| 1778189013 | 15.56° C | 67% | 1009.2 hPa | 0 mm | - | - | - |
| 1778188713 | 16.11° C | 67% | 1009.2 hPa | 0 mm | - | - | - |
| 1778188413 | 15.56° C | 66% | 1009.2 hPa | 0 mm | - | - | - |
| 1778188112 | 16.11° C | 66% | 1009.2 hPa | 0 mm | - | - | - |
| 1778187812 | 16.11° C | 64% | 1009.3 hPa | 0 mm | - | - | - |
| 1778187512 | 16.11° C | 62% | 1009.4 hPa | 0 mm | - | - | - |
| 1778187212 | 16.11° C | 61% | 1009.4 hPa | 0 mm | - | - | - |
| 1778186912 | 16.67° C | 62% | 1009.3 hPa | 0 mm | - | - | - |
| 1778186612 | 16.11° C | 65% | 1009.1 hPa | 0 mm | - | - | - |
| 1778186311 | 16.11° C | 65% | 1009.1 hPa | 0 mm | - | - | - |
| 1778186011 | 15.56° C | 66% | 1009.1 hPa | 0 mm | - | - | - |
| 1778185711 | 15.56° C | 63% | 1009 hPa | 0 mm | - | - | - |
* Rain latest hour (hover to see other rain measurements)
** Current wind speed in m/s (hover to see current wind gust speed)